Time,TemperatureF,DewpointF,PressureIn,WindDirection,WindDirectionDegrees,WindSpeedMPH,WindSpeedGustMPH,Humidity,HourlyPrecipIn,Conditions,Clouds,dailyrainin,SoftwareType,DateUTC
2013-08-22 00:05:00,66.7,65.2,30.04,SE,125,0.0,15.0,95,0.00,,,0.00,Wunderground v.1.15,2013-08-22 04:05:00,
2013-08-22 00:10:00,66.7,65.2,30.04,SE,125,0.0,15.0,95,0.00,,,0.00,Wunderground v.1.15,2013-08-22 04:10:00,
2013-08-22 00:20:00,66.7,65.2,30.03,SE,126,0.0,15.0,95,0.00,,,0.00,Wunderground v.1.15,2013-08-22 04:20:00,
2013-08-22 00:25:00,66.7,65.2,30.03,SE,125,0.0,15.0,95,0.00,,,0.00,Wunderground v.1.15,2013-08-22 04:25:00,
2013-08-22 00:35:00,66.7,65.5,30.03,SE,125,0.0,15.0,96,0.00,,,0.00,Wunderground v.1.15,2013-08-22 04:35:00,
2013-08-22 00:45:00,66.7,65.5,30.03,SE,125,0.0,15.0,96,0.00,,,0.00,Wunderground v.1.15,2013-08-22 04:45:00,
2013-08-22 00:50:00,66.7,65.5,30.03,SE,125,0.0,15.0,96,0.00,,,0.00,Wunderground v.1.15,2013-08-22 04:50:00,
2013-08-22 01:00:00,66.6,65.4,30.04,SE,125,0.0,15.0,96,0.00,,,0.00,Wunderground v.1.15,2013-08-22 05:00:00,
2013-08-22 01:05:00,66.5,65.3,30.03,SE,126,0.0,15.0,96,0.00,,,0.00,Wunderground v.1.15,2013-08-22 05:05:00,
2013-08-22 01:15:00,66.5,65.3,30.03,SE,125,0.0,15.0,96,0.00,,,0.00,Wunderground v.1.15,2013-08-22 05:15:00,
2013-08-22 01:20:00,66.4,65.2,30.04,SE,125,0.0,15.0,96,0.00,,,0.00,Wunderground v.1.15,2013-08-22 05:20:00,
2013-08-22 01:40:00,66.2,65.0,30.04,SE,126,0.0,15.0,96,0.00,,,0.00,Wunderground v.1.15,2013-08-22 05:40:00,
2013-08-22 01:50:00,66.1,65.2,30.05,SE,125,0.0,15.0,97,0.00,,,0.00,Wunderground v.1.15,2013-08-22 05:50:00,
2013-08-22 02:00:00,66.2,65.3,30.05,SE,125,0.0,15.0,97,0.00,,,0.00,Wunderground v.1.15,2013-08-22 06:00:00,
2013-08-22 02:05:00,66.2,65.3,30.05,SE,125,0.0,15.0,97,0.00,,,0.00,Wunderground v.1.15,2013-08-22 06:05:00,
2013-08-22 02:15:00,66.4,65.5,30.05,SE,126,0.0,15.0,97,0.00,,,0.00,Wunderground v.1.15,2013-08-22 06:15:00,
2013-08-22 02:20:00,66.4,65.5,30.04,SE,125,0.0,15.0,97,0.00,,,0.00,Wunderground v.1.15,2013-08-22 06:20:00,
2013-08-22 02:30:00,66.6,66.0,30.05,SE,125,0.0,15.0,98,0.00,,,0.00,Wunderground v.1.15,2013-08-22 06:30:00,
2013-08-22 02:40:00,67.0,66.4,30.05,SE,125,0.0,15.0,98,0.00,,,0.00,Wunderground v.1.15,2013-08-22 06:40:00,
2013-08-22 02:45:00,67.1,66.5,30.05,SE,125,0.0,15.0,98,0.00,,,0.00,Wunderground v.1.15,2013-08-22 06:45:00,
2013-08-22 02:55:00,67.3,66.7,30.05,SE,125,0.0,15.0,98,0.00,,,0.00,Wunderground v.1.15,2013-08-22 06:55:00,
2013-08-22 03:00:00,67.3,66.7,30.04,SE,125,0.0,15.0,98,0.00,,,0.00,Wunderground v.1.15,2013-08-22 07:00:00,
2013-08-22 03:10:00,67.2,66.6,30.04,SE,125,0.0,15.0,98,0.00,,,0.00,Wunderground v.1.15,2013-08-22 07:10:00,
2013-08-22 03:20:00,67.1,66.5,30.04,SE,125,0.0,15.0,98,0.00,,,0.00,Wunderground v.1.15,2013-08-22 07:20:00,
2013-08-22 03:30:00,67.0,66.4,30.04,SE,125,0.0,15.0,98,0.00,,,0.00,Wunderground v.1.15,2013-08-22 07:30:00,
2013-08-22 03:35:00,66.9,66.3,30.03,SE,125,0.0,15.0,98,0.00,,,0.00,Wunderground v.1.15,2013-08-22 07:35:00,
2013-08-22 03:45:00,66.8,66.2,30.03,SE,125,0.0,15.0,98,0.00,,,0.00,Wunderground v.1.15,2013-08-22 07:45:00,
2013-08-22 03:50:00,66.7,66.1,30.03,SE,126,0.0,15.0,98,0.00,,,0.00,Wunderground v.1.15,2013-08-22 07:50:00,
2013-08-22 04:00:00,66.6,66.0,30.03,SE,126,0.0,15.0,98,0.00,,,0.00,Wunderground v.1.15,2013-08-22 08:00:00,
2013-08-22 04:10:00,66.3,65.7,30.03,SE,125,0.0,15.0,98,0.00,,,0.00,Wunderground v.1.15,2013-08-22 08:10:00,
2013-08-22 04:20:00,66.0,65.4,30.03,SE,125,0.0,15.0,98,0.00,,,0.00,Wunderground v.1.15,2013-08-22 08:20:00,
2013-08-22 04:25:00,65.8,65.2,30.03,SE,125,0.0,15.0,98,0.00,,,0.00,Wunderground v.1.15,2013-08-22 08:25:00,
2013-08-22 04:35:00,65.4,64.8,30.02,SE,126,0.0,15.0,98,0.00,,,0.00,Wunderground v.1.15,2013-08-22 08:35:00,
2013-08-22 04:40:00,65.3,64.7,30.02,SE,125,0.0,15.0,98,0.00,,,0.00,Wunderground v.1.15,2013-08-22 08:40:00,
2013-08-22 04:45:00,65.2,64.6,30.02,SE,125,0.0,15.0,98,0.00,,,0.00,Wunderground v.1.15,2013-08-22 08:45:00,
2013-08-22 04:55:00,65.0,64.4,30.01,SE,125,0.0,15.0,98,0.00,,,0.00,Wunderground v.1.15,2013-08-22 08:55:00,
2013-08-22 05:05:00,64.8,64.2,30.01,SE,125,0.0,15.0,98,0.00,,,0.00,Wunderground v.1.15,2013-08-22 09:05:00,
2013-08-22 05:15:00,64.7,64.1,30.01,SE,126,0.0,15.0,98,0.00,,,0.00,Wunderground v.1.15,2013-08-22 09:15:00,
2013-08-22 05:25:00,64.5,63.9,30.01,SE,125,0.0,15.0,98,0.00,,,0.00,Wunderground v.1.15,2013-08-22 09:25:00,
2013-08-22 05:30:00,64.5,63.9,30.01,SE,125,0.0,15.0,98,0.00,,,0.00,Wunderground v.1.15,2013-08-22 09:30:00,
2013-08-22 05:35:00,64.4,63.8,30.01,SE,125,0.0,15.0,98,0.00,,,0.00,Wunderground v.1.15,2013-08-22 09:35:00,
2013-08-22 05:45:00,64.2,63.6,30.00,SE,126,0.0,15.0,98,0.00,,,0.00,Wunderground v.1.15,2013-08-22 09:45:00,
2013-08-22 05:55:00,64.3,63.7,30.01,SE,136,0.0,15.0,98,0.00,,,0.00,Wunderground v.1.15,2013-08-22 09:55:00,
2013-08-22 06:00:00,64.4,63.8,30.01,SE,138,1.0,1.0,98,0.00,,,0.00,Wunderground v.1.15,2013-08-22 10:00:00,
2013-08-22 06:10:00,64.5,63.9,30.00,SE,140,0.0,15.0,98,0.00,,,0.00,Wunderground v.1.15,2013-08-22 10:10:00,
2013-08-22 06:20:00,64.9,64.6,30.01,SE,142,0.0,15.0,99,0.00,,,0.00,Wunderground v.1.15,2013-08-22 10:20:00,
2013-08-22 06:30:00,65.2,64.9,30.01,SE,142,0.0,15.0,99,0.00,,,0.00,Wunderground v.1.15,2013-08-22 10:30:00,
2013-08-22 06:40:00,65.3,65.0,30.01,SE,142,0.0,15.0,99,0.00,,,0.00,Wunderground v.1.15,2013-08-22 10:40:00,
2013-08-22 08:30:00,70.9,70.6,30.00,SE,134,0.0,15.0,99,0.00,,,0.00,Wunderground v.1.15,2013-08-22 12:30:00,
2013-08-22 08:35:00,71.1,70.8,30.00,SE,134,1.0,15.0,99,0.00,,,0.00,Wunderground v.1.15,2013-08-22 12:35:00,
2013-08-22 08:45:00,71.4,70.8,30.00,SE,134,1.0,15.0,98,0.00,,,0.00,Wunderground v.1.15,2013-08-22 12:45:00,
2013-08-22 08:55:00,71.7,71.1,30.00,SE,141,0.0,15.0,98,0.00,,,0.00,Wunderground v.1.15,2013-08-22 12:55:00,
2013-08-22 09:00:00,71.9,71.3,30.00,SE,143,0.0,15.0,98,0.00,,,0.00,Wunderground v.1.15,2013-08-22 13:00:00,
2013-08-22 09:10:00,72.1,71.2,30.00,SE,134,0.0,15.0,97,0.00,,,0.00,Wunderground v.1.15,2013-08-22 13:10:00,
2013-08-22 09:20:00,72.3,71.4,30.00,ESE,115,0.0,15.0,97,0.00,,,0.00,Wunderground v.1.15,2013-08-22 13:20:00,
2013-08-22 09:25:00,72.6,71.4,30.00,ESE,110,0.0,15.0,96,0.00,,,0.00,Wunderground v.1.15,2013-08-22 13:25:00,
2013-08-22 09:30:00,72.8,71.6,29.99,SSE,147,0.0,15.0,96,0.00,,,0.00,Wunderground v.1.15,2013-08-22 13:30:00,
2013-08-22 09:40:00,73.4,71.9,29.99,SE,124,1.0,1.0,95,0.00,,,0.00,Wunderground v.1.15,2013-08-22 13:40:00,
2013-08-22 09:50:00,74.5,72.3,30.00,SE,143,1.0,15.0,93,0.00,,,0.00,Wunderground v.1.15,2013-08-22 13:50:00,
2013-08-22 10:00:00,76.3,72.8,29.99,SSW,203,0.0,15.0,89,0.00,,,0.00,Wunderground v.1.15,2013-08-22 14:00:00,
2013-08-22 10:10:00,76.7,72.5,29.99,WSW,256,0.0,15.0,87,0.00,,,0.00,Wunderground v.1.15,2013-08-22 14:10:00,
2013-08-22 10:20:00,76.3,72.5,29.99,NW,304,0.0,15.0,88,0.00,,,0.00,Wunderground v.1.15,2013-08-22 14:20:00,
2013-08-22 10:30:00,76.2,72.4,29.99,NW,321,0.0,15.0,88,0.00,,,0.00,Wunderground v.1.15,2013-08-22 14:30:00,
2013-08-22 10:40:00,76.0,72.2,29.99,SE,131,0.0,15.0,88,0.00,,,0.00,Wunderground v.1.15,2013-08-22 14:40:00,
2013-08-22 10:45:00,76.0,72.2,29.99,ESE,121,0.0,15.0,88,0.00,,,0.00,Wunderground v.1.15,2013-08-22 14:45:00,
2013-08-22 10:55:00,76.1,72.3,29.99,East,99,0.0,15.0,88,0.00,,,0.00,Wunderground v.1.15,2013-08-22 14:55:00,
2013-08-22 11:05:00,76.0,72.2,29.99,SSE,158,1.0,15.0,88,0.00,,,0.00,Wunderground v.1.15,2013-08-22 15:05:00,
2013-08-22 11:10:00,76.0,72.2,29.99,SSE,167,1.0,1.0,88,0.00,,,0.00,Wunderground v.1.15,2013-08-22 15:10:00,
2013-08-22 11:20:00,76.1,71.9,30.00,WSW,248,0.0,15.0,87,0.00,,,0.00,Wunderground v.1.15,2013-08-22 15:20:00,
2013-08-22 11:25:00,75.9,72.1,30.00,South,176,0.0,15.0,88,0.00,,,0.00,Wunderground v.1.15,2013-08-22 15:25:00,
2013-08-22 11:35:00,75.6,71.8,30.00,SSE,164,0.0,15.0,88,0.00,,,0.00,Wunderground v.1.15,2013-08-22 15:35:00,
2013-08-22 11:45:00,74.9,71.1,30.00,South,184,1.0,15.0,88,0.00,,,0.00,Wunderground v.1.15,2013-08-22 15:45:00,
2013-08-22 11:50:00,74.2,70.7,30.00,SE,132,1.0,15.0,89,0.00,,,0.01,Wunderground v.1.15,2013-08-22 15:50:00,
2013-08-22 12:00:00,72.9,69.8,30.00,ENE,59,1.0,15.0,90,0.00,,,0.01,Wunderground v.1.15,2013-08-22 16:00:00,
2013-08-22 12:10:00,72.1,69.6,30.00,ENE,77,0.0,15.0,92,0.04,,,0.02,Wunderground v.1.15,2013-08-22 16:10:00,
2013-08-22 12:20:00,71.1,68.7,29.99,ENE,75,0.0,15.0,92,0.21,,,0.05,Wunderground v.1.15,2013-08-22 16:20:00,
2013-08-22 12:25:00,70.6,68.5,29.99,ENE,77,0.0,15.0,93,0.15,,,0.06,Wunderground v.1.15,2013-08-22 16:25:00,
2013-08-22 12:30:00,70.3,68.2,29.99,ENE,77,0.0,15.0,93,0.14,,,0.08,Wunderground v.1.15,2013-08-22 16:30:00,
2013-08-22 12:40:00,69.8,68.0,29.99,East,79,0.0,15.0,94,0.22,,,0.11,Wunderground v.1.15,2013-08-22 16:40:00,
2013-08-22 12:45:00,69.5,68.0,29.99,East,79,0.0,15.0,95,0.30,,,0.14,Wunderground v.1.15,2013-08-22 16:45:00,
2013-08-22 12:55:00,69.0,67.5,29.98,East,80,0.0,15.0,95,0.31,,,0.19,Wunderground v.1.15,2013-08-22 16:55:00,
2013-08-22 13:05:00,68.9,67.7,29.98,East,81,0.0,15.0,96,0.19,,,0.23,Wunderground v.1.15,2013-08-22 17:05:00,
2013-08-22 13:10:00,68.9,67.7,29.98,East,81,0.0,15.0,96,0.19,,,0.24,Wunderground v.1.15,2013-08-22 17:10:00,
2013-08-22 13:20:00,69.1,68.2,29.97,East,81,0.0,15.0,97,0.07,,,0.25,Wunderground v.1.15,2013-08-22 17:20:00,
2013-08-22 13:25:00,69.3,68.4,29.96,East,84,0.0,15.0,97,0.07,,,0.25,Wunderground v.1.15,2013-08-22 17:25:00,
2013-08-22 13:35:00,69.6,68.7,29.95,ESE,111,0.0,15.0,97,0.00,,,0.25,Wunderground v.1.15,2013-08-22 17:35:00,
2013-08-22 13:45:00,70.3,69.7,29.95,East,94,0.0,15.0,98,0.00,,,0.25,Wunderground v.1.15,2013-08-22 17:45:00,
2013-08-22 13:55:00,71.0,70.4,29.95,East,96,0.0,15.0,98,0.00,,,0.25,Wunderground v.1.15,2013-08-22 17:55:00,
2013-08-22 14:00:00,71.4,70.8,29.95,WNW,287,0.0,15.0,98,0.00,,,0.25,Wunderground v.1.15,2013-08-22 18:00:00,
2013-08-22 14:10:00,72.0,71.1,29.94,ENE,68,0.0,15.0,97,0.00,,,0.25,Wunderground v.1.15,2013-08-22 18:10:00,
2013-08-22 14:20:00,72.4,71.2,29.94,NNE,14,0.0,15.0,96,0.00,,,0.25,Wunderground v.1.15,2013-08-22 18:20:00,
2013-08-22 14:30:00,72.7,71.2,29.94,NNE,15,0.0,15.0,95,0.00,,,0.25,Wunderground v.1.15,2013-08-22 18:30:00,
2013-08-22 14:35:00,72.9,71.4,29.94,WSW,241,0.0,15.0,95,0.00,,,0.25,Wunderground v.1.15,2013-08-22 18:35:00,
2013-08-22 14:40:00,73.0,71.5,29.94,East,83,0.0,15.0,95,0.00,,,0.25,Wunderground v.1.15,2013-08-22 18:40:00,
2013-08-22 14:50:00,72.9,71.1,29.93,SSW,200,0.0,15.0,94,0.00,,,0.25,Wunderground v.1.15,2013-08-22 18:50:00,
2013-08-22 15:00:00,73.0,71.2,29.93,South,181,0.0,15.0,94,0.00,,,0.25,Wunderground v.1.15,2013-08-22 19:00:00,
2013-08-22 15:10:00,73.1,71.6,29.92,South,181,0.0,15.0,95,0.00,,,0.25,Wunderground v.1.15,2013-08-22 19:10:00,
2013-08-22 15:20:00,73.6,72.4,29.92,ESE,111,0.0,15.0,96,0.00,,,0.25,Wunderground v.1.15,2013-08-22 19:20:00,
2013-08-22 15:25:00,73.8,72.3,29.92,East,96,0.0,15.0,95,0.00,,,0.25,Wunderground v.1.15,2013-08-22 19:25:00,
2013-08-22 15:30:00,74.1,72.6,29.92,East,96,0.0,15.0,95,0.00,,,0.25,Wunderground v.1.15,2013-08-22 19:30:00,
2013-08-22 15:40:00,74.3,72.1,29.91,ESE,123,1.0,15.0,93,0.00,,,0.25,Wunderground v.1.15,2013-08-22 19:40:00,
2013-08-22 15:50:00,74.3,72.1,29.89,SE,137,1.0,1.0,93,0.00,,,0.25,Wunderground v.1.15,2013-08-22 19:50:00,
2013-08-22 16:00:00,74.0,71.8,29.89,East,79,1.0,1.0,93,0.00,,,0.25,Wunderground v.1.15,2013-08-22 20:00:00,
2013-08-22 16:10:00,74.1,71.9,29.90,SE,129,0.0,15.0,93,0.00,,,0.25,Wunderground v.1.15,2013-08-22 20:10:00,
2013-08-22 16:20:00,74.0,71.5,29.89,SSE,156,0.0,15.0,92,0.00,,,0.25,Wunderground v.1.15,2013-08-22 20:20:00,
2013-08-22 16:30:00,73.9,71.4,29.89,SE,143,0.0,15.0,92,0.00,,,0.25,Wunderground v.1.15,2013-08-22 20:30:00,
2013-08-22 16:40:00,73.7,71.5,29.88,SE,132,0.0,15.0,93,0.00,,,0.25,Wunderground v.1.15,2013-08-22 20:40:00,
2013-08-22 16:50:00,73.5,71.0,29.88,SE,132,0.0,15.0,92,0.00,,,0.25,Wunderground v.1.15,2013-08-22 20:50:00,
2013-08-22 17:00:00,73.7,71.5,29.88,SE,146,0.0,15.0,93,0.00,,,0.25,Wunderground v.1.15,2013-08-22 21:00:00,
2013-08-22 17:10:00,74.0,71.5,29.88,East,98,0.0,15.0,92,0.00,,,0.25,Wunderground v.1.15,2013-08-22 21:10:00,
2013-08-22 17:20:00,74.1,71.6,29.88,North,8,0.0,15.0,92,0.00,,,0.25,Wunderground v.1.15,2013-08-22 21:20:00,
2013-08-22 17:30:00,74.2,71.7,29.88,NNE,12,0.0,15.0,92,0.00,,,0.25,Wunderground v.1.15,2013-08-22 21:30:00,
2013-08-22 17:35:00,74.2,71.7,29.87,ENE,61,0.0,15.0,92,0.00,,,0.25,Wunderground v.1.15,2013-08-22 21:35:00,
2013-08-22 17:45:00,74.2,71.7,29.87,ESE,110,0.0,15.0,92,0.00,,,0.25,Wunderground v.1.15,2013-08-22 21:45:00,
2013-08-22 17:55:00,74.2,71.7,29.87,SE,124,0.0,15.0,92,0.00,,,0.25,Wunderground v.1.15,2013-08-22 21:55:00,
2013-08-22 18:00:00,74.1,71.6,29.87,SE,124,0.0,15.0,92,0.00,,,0.25,Wunderground v.1.15,2013-08-22 22:00:00,
2013-08-22 18:10:00,74.1,71.9,29.87,SE,135,0.0,15.0,93,0.00,,,0.25,Wunderground v.1.15,2013-08-22 22:10:00,
2013-08-22 18:15:00,74.0,71.8,29.87,SE,135,0.0,15.0,93,0.00,,,0.25,Wunderground v.1.15,2013-08-22 22:15:00,
2013-08-22 18:25:00,73.9,71.7,29.87,SE,136,0.0,15.0,93,0.00,,,0.25,Wunderground v.1.15,2013-08-22 22:25:00,
2013-08-22 18:35:00,73.8,72.0,29.87,SE,135,0.0,15.0,94,0.00,,,0.25,Wunderground v.1.15,2013-08-22 22:35:00,
2013-08-22 18:40:00,73.7,71.9,29.87,SE,135,0.0,15.0,94,0.00,,,0.25,Wunderground v.1.15,2013-08-22 22:40:00,
2013-08-22 18:45:00,73.6,71.8,29.87,SE,134,0.0,15.0,94,0.00,,,0.25,Wunderground v.1.15,2013-08-22 22:45:00,
2013-08-22 18:55:00,73.5,71.7,29.87,SE,134,0.0,15.0,94,0.00,,,0.25,Wunderground v.1.15,2013-08-22 22:55:00,
2013-08-22 19:00:00,73.4,71.9,29.87,SE,134,0.0,15.0,95,0.00,,,0.25,Wunderground v.1.15,2013-08-22 23:00:00,
2013-08-22 19:05:00,73.3,71.8,29.87,South,170,0.0,15.0,95,0.00,,,0.25,Wunderground v.1.15,2013-08-22 23:05:00,
2013-08-22 19:15:00,73.2,71.7,29.87,ESE,111,0.0,15.0,95,0.00,,,0.25,Wunderground v.1.15,2013-08-22 23:15:00,
2013-08-22 19:20:00,73.1,71.6,29.87,ESE,122,0.0,15.0,95,0.00,,,0.25,Wunderground v.1.15,2013-08-22 23:20:00,
2013-08-22 19:30:00,72.9,71.4,29.87,East,101,0.0,15.0,95,0.00,,,0.25,Wunderground v.1.15,2013-08-22 23:30:00,
2013-08-22 19:40:00,72.8,71.3,29.86,ESE,110,0.0,15.0,95,0.00,,,0.25,Wunderground v.1.15,2013-08-22 23:40:00,
2013-08-22 19:45:00,72.7,71.2,29.86,SE,135,0.0,15.0,95,0.00,,,0.25,Wunderground v.1.15,2013-08-22 23:45:00,
2013-08-22 19:55:00,72.6,71.4,29.86,SE,139,1.0,15.0,96,0.00,,,0.25,Wunderground v.1.15,2013-08-22 23:55:00,
2013-08-22 20:05:00,72.4,71.2,29.86,SE,141,0.0,15.0,96,0.00,,,0.25,Wunderground v.1.15,2013-08-23 00:05:00,
2013-08-22 20:15:00,72.3,71.1,29.86,SE,134,0.0,15.0,96,0.00,,,0.25,Wunderground v.1.15,2013-08-23 00:15:00,
2013-08-22 20:20:00,72.2,71.0,29.87,SE,138,0.0,15.0,96,0.00,,,0.25,Wunderground v.1.15,2013-08-23 00:20:00,
2013-08-22 20:25:00,72.3,71.1,29.86,SE,139,0.0,15.0,96,0.00,,,0.25,Wunderground v.1.15,2013-08-23 00:25:00,
2013-08-22 20:35:00,72.2,71.0,29.87,SE,139,0.0,15.0,96,0.00,,,0.25,Wunderground v.1.15,2013-08-23 00:35:00,
2013-08-22 20:45:00,72.1,70.9,29.86,SE,146,0.0,15.0,96,0.00,,,0.25,Wunderground v.1.15,2013-08-23 00:45:00,
2013-08-22 20:55:00,71.9,70.7,29.86,SE,146,0.0,15.0,96,0.00,,,0.25,Wunderground v.1.15,2013-08-23 00:55:00,
2013-08-22 21:05:00,71.8,70.9,29.87,SE,146,0.0,15.0,97,0.00,,,0.25,Wunderground v.1.15,2013-08-23 01:05:00,
2013-08-22 21:10:00,71.7,70.8,29.87,SE,146,0.0,15.0,97,0.00,,,0.25,Wunderground v.1.15,2013-08-23 01:10:00,
2013-08-22 21:20:00,71.6,70.7,29.87,SE,146,0.0,15.0,97,0.00,,,0.25,Wunderground v.1.15,2013-08-23 01:20:00,
2013-08-22 21:25:00,71.6,70.7,29.87,SSE,153,0.0,15.0,97,0.00,,,0.25,Wunderground v.1.15,2013-08-23 01:25:00,
2013-08-22 21:35:00,71.5,70.6,29.87,SSE,151,0.0,15.0,97,0.00,,,0.25,Wunderground v.1.15,2013-08-23 01:35:00,
2013-08-22 21:45:00,71.5,70.6,29.88,SSE,150,0.0,15.0,97,0.00,,,0.25,Wunderground v.1.15,2013-08-23 01:45:00,
2013-08-22 21:55:00,71.6,70.7,29.87,SSE,150,0.0,15.0,97,0.00,,,0.25,Wunderground v.1.15,2013-08-23 01:55:00,
2013-08-22 22:05:00,71.5,70.6,29.87,SSE,150,0.0,15.0,97,0.00,,,0.25,Wunderground v.1.15,2013-08-23 02:05:00,
2013-08-22 22:10:00,71.5,70.6,29.86,SSE,150,0.0,15.0,97,0.00,,,0.25,Wunderground v.1.15,2013-08-23 02:10:00,
2013-08-22 22:20:00,71.4,70.5,29.86,SSE,150,0.0,15.0,97,0.00,,,0.25,Wunderground v.1.15,2013-08-23 02:20:00,
2013-08-22 22:30:00,71.3,70.4,29.86,SE,136,0.0,15.0,97,0.00,,,0.25,Wunderground v.1.15,2013-08-23 02:30:00,
2013-08-22 22:35:00,71.3,70.4,29.86,SE,132,0.0,15.0,97,0.00,,,0.25,Wunderground v.1.15,2013-08-23 02:35:00,
2013-08-22 22:45:00,71.2,70.3,29.86,SSE,163,0.0,15.0,97,0.00,,,0.25,Wunderground v.1.15,2013-08-23 02:45:00,
2013-08-22 22:55:00,71.1,70.2,29.86,SSE,150,0.0,15.0,97,0.00,,,0.25,Wunderground v.1.15,2013-08-23 02:55:00,
2013-08-22 23:05:00,71.1,70.2,29.85,SSE,150,0.0,15.0,97,0.00,,,0.25,Wunderground v.1.15,2013-08-23 03:05:00,
2013-08-22 23:10:00,71.0,70.1,29.85,SSE,158,0.0,15.0,97,0.00,,,0.25,Wunderground v.1.15,2013-08-23 03:10:00,
2013-08-22 23:20:00,71.0,70.1,29.85,SSE,153,0.0,15.0,97,0.00,,,0.25,Wunderground v.1.15,2013-08-23 03:20:00,
2013-08-22 23:25:00,71.0,70.1,29.85,SSE,153,0.0,15.0,97,0.00,,,0.25,Wunderground v.1.15,2013-08-23 03:25:00,
2013-08-22 23:35:00,70.9,70.0,29.85,SSE,153,0.0,15.0,97,0.00,,,0.25,Wunderground v.1.15,2013-08-23 03:35:00,
2013-08-22 23:45:00,70.9,70.0,29.85,SSE,153,0.0,15.0,97,0.00,,,0.25,Wunderground v.1.15,2013-08-23 03:45:00,
2013-08-22 23:50:00,70.9,70.0,29.84,SSE,153,0.0,15.0,97,0.00,,,0.25,Wunderground v.1.15,2013-08-23 03:50:00,